Regional Weather Roundup
Issued by NWS

Home | Current Version | Previous Version | Text Only | Print | Product List | Glossary On
Versions: 1 2 3 4 5 6 7 8 9 10 11 12 13 14 15 16 17 18 19 20 21 22 23 24 25 26 27 28 29 30 31 32 33 34 35 36 37 38 39 40 41 42 43 44 45 46 47 48 49 50
000
ASUS45 KABQ 250610
RWRNM
WEATHER ROUNDUP FOR NEW MEXICO
NATIONAL WEATHER SERVICE ALBUQUERQUE NM
1200 AM MDT SAT OCT 25 2014

NOTE: "FAIR" MEANS FEW OR NO CLOUDS BELOW 12,000 FEET AGL WITH NO
       SIGNIFICANT WEATHER OR OBSTRUCTIONS TO VISION.

      THIS PRODUCT IS RELEASED AS TWO VERSIONS.  ONE VERSION NEAR
      THE TOP OF THE HOUR CONTAINING PRELIMINARY DATA FROM ALBUQUERQUE
      AND OTHER STATIONS.  A FINAL VERSION WITH ADDITIONAL DATA IS
      ISSUED ABOUT 10 MINUTES AFTER THE HOUR.

NMZ501-503-504-510>518-250700-
NORTHWEST PLATEAU/NORTHCENTRAL MOUNTAINS

CITY           SKY/WX    TMP DP  RH WIND       PRES   REMARKS
FARMINGTON     CLEAR     49  30  48 E10       30.30S
6HR MIN TEMP:  45; 6HR MAX TEMP:  71;

LOS ALAMOS     CLEAR     60  18  19 CALM      30.39S
SANTA FE       CLEAR     46  23  40 NW5       30.33R
6HR MIN TEMP:  46; 6HR MAX TEMP:  71;

TAOS           CLEAR     43  21  42 N9        30.39S
ANGEL FIRE     FAIR      31  24  75 CALM      30.48S

$$
NMZ402-403-502-505>509-250700-
WESTCENTRAL MOUNTAINS/SOUTHWEST MOUNTAINS

CITY           SKY/WX    TMP DP  RH WIND       PRES   REMARKS
GALLUP         CLEAR     42  32  67 CALM      30.36S
6HR MIN TEMP:  42; 6HR MAX TEMP:  74;

GRANTS         CLEAR     37  23  56 NW6       30.38F WCI  33
SILVER CITY    CLEAR     50  43  76 N8        30.32S

$$
NMZ407-409-411-412-250700-
SOUTHERN DESERTS

CITY           SKY/WX    TMP DP  RH WIND       PRES   REMARKS
LORDSBURG      FAIR      59  43  55 S7        30.23S
DEMING         CLEAR     54  44  69 N3        30.24S
6HR MIN TEMP:  54; 6HR MAX TEMP:  79;

LAS CRUCES     CLEAR     58  47  66 CALM      30.25S
HOLLOMAN AFB   PTCLDY    57  46  67 E5        30.21S
T OR C         CLEAR     59  45  59 CALM      30.25S
6HR MIN TEMP:  59; 6HR MAX TEMP:  78;


$$
NMZ519>523-250700-
CENTRAL VALLEYS/CENTRAL HIGHLANDS

CITY           SKY/WX    TMP DP  RH WIND       PRES   REMARKS
ALBUQUERQUE    CLEAR     60  34  37 E5        30.29S
6HR MIN TEMP:  55; 6HR MAX TEMP:  77;

DOUBLE EAGLE   CLEAR     52  32  46 W5        30.32S
MORIARTY ARPT  FAIR      38  31  75 CALM      30.34S
6HR MIN TEMP:  38; 6HR MAX TEMP:  71;

CLINES CORNERS CLEAR     51  29  42 W10       30.35S
6HR MIN TEMP:  51; 6HR MAX TEMP:  69;

BELEN          NOT AVBL
SOCORRO        FAIR      56  44  64 N5        30.26S
6HR MIN TEMP:  55; 6HR MAX TEMP:  76;


$$
NMZ524>526-539-540-250700-
SOUTHCENTRAL MOUNTAINS

CITY           SKY/WX    TMP DP  RH WIND       PRES   REMARKS
RUIDOSO        CLEAR     50  39  66 SW9       30.39F

$$
NMZ527>531-250700-
NORTHEAST HIGHLANDS/NORTHEAST PLAINS

CITY           SKY/WX    TMP DP  RH WIND       PRES   REMARKS
LAS VEGAS      PTCLDY    50  23  34 N7        30.33S
6HR MIN TEMP:  46; 6HR MAX TEMP:  71;

RATON          CLEAR     44  31  60 NE8       30.30S
6HR MIN TEMP:  44; 6HR MAX TEMP:  72;

CLAYTON        CLEAR     60  33  36 W7        30.20F
6HR MIN TEMP:  59; 6HR MAX TEMP:  70;


$$
NMZ532>537-250700-
EASTCENTRAL PLAINS

CITY           SKY/WX    TMP DP  RH WIND       PRES   REMARKS
TUCUMCARI      CLEAR     61  45  55 SW5       30.16R
6HR MIN TEMP:  61; 6HR MAX TEMP:  79;

CANNON AFB     CLEAR     61  47  59 W6        30.20F
6HR MIN TEMP:  58; 6HR MAX TEMP:  74;

CLOVIS AIRPORT CLEAR     57  43  58 W9        30.23S

$$
NMZ028-029-538-250700-
SOUTHEAST PLAINS

CITY           SKY/WX    TMP DP  RH WIND       PRES   REMARKS
ROSWELL        CLEAR     58  53  84 S3        30.17F
6HR MIN TEMP:  58; 6HR MAX TEMP:  77;

CARLSBAD       CLEAR     60  53  77 SW9       30.15F
6HR MIN TEMP:  59; 6HR MAX TEMP:  77;

HOBBS          CLEAR     57  48  72 CALM      30.20S


$$



USA.gov is the U.S. government's official web portal to all federal, state and local government web resources and services.